Regional Weather Roundup
Issued by NWS

Home | Current Version | Previous Version | Graphics & Text | Print | Product List | Glossary On
Versions: 1 2 3 4 5 6 7 8 9 10 11 12 13 14 15 16 17 18 19 20 21 22 23 24 25 26 27 28 29 30 31 32 33 34 35 36 37 38 39 40 41 42 43 44 45 46 47 48 49 50
000
ASUS45 KBOU 031407
RWRCO

WEATHER ROUNDUP FOR COLORADO
NATIONAL WEATHER SERVICE DENVER/BOULDER CO
700 AM MST TUE MAR 03 2015

NOTE: "FAIR" INDICATES FEW OR NO CLOUDS BELOW 12000 FEET WITH NO
SIGNIFICANT WEATHER AND/OR OBSTRUCTIONS TO VISIBILITY.

COZ001>005-013-030-031-031500-
...NORTHWEST COLORADO...

CITY           SKY/WX    TMP DP  RH WIND       PRES   REMARKS
CRAIG          CLOUDY    27  25  92 SW8       29.78S FOG     WCI  19
HAYDEN         CLOUDY    25  21  86 W14       29.76S WCI  13
MEEKER         MOCLDY    30  25  81 W5        29.76F WCI  25
MOUNT WERNER   NOT AVBL
STEAMBOAT SPGS CLOUDY    24  22  93 SW7       29.75R WCI  16
WALDEN         CLOUDY    19  14  79 N5        29.69R WCI  13
$$

COZ006>008-011-031500-
...WEST CENTRAL VALLEYS...

CITY           SKY/WX    TMP DP  RH WIND       PRES   REMARKS
GRAND JUNCTION MOCLDY    31  28  89 NE7       29.81F WCI  24
MONTROSE       CLOUDY    33  23  66 E6        29.85S WCI  28
EAGLE          PTCLDY    27  25  93 CALM      29.78F
RIFLE          MOCLDY    34  26  72 VRB3      29.80S
DELTA          CLOUDY    38  27  66 CALM      29.84S
NUCLA          MOCLDY    34  27  75 CALM      29.89S
$$

COZ017>023-064>068-031500-
...SOUTHWEST COLORADO...

CITY           SKY/WX    TMP DP  RH WIND       PRES   REMARKS
DURANGO        CLOUDY    25  23  92 W6        29.88F WCI  18
CORTEZ         CLOUDY    31  28  89 NE5       29.89F WCI  26
PAGOSA SPRINGS CLOUDY    28  26  92 SW5       29.88F WCI  22
TELLURIDE      MOCLDY    22  13  68 CALM      29.84S
WOLF CREEK PAS   N/A    N/A N/A N/A MISG      29.82S
$$

COZ009-010-012-014-032>034-037-058>063-031500-
...CENTRAL COLORADO...

CITY           SKY/WX    TMP DP  RH WIND       PRES   REMARKS
ASPEN          CLOUDY    20  17  88 S7        29.75F WCI  11
BUENA VISTA    MOCLDY    27  13  54 W8        29.74S WCI  19
COPPER MTN     NOT AVBL
BERTHOUD PASS  NOT AVBL
COTTONWOOD PAS CLOUDY    25  10  54 NW16G29   29.72S WCI  12
GUNNISON       PTCLDY    27  12  54 W10       29.82S WCI  17
KREMMLING      CLOUDY    30  21  69 SW15G23   29.73F WCI  19
LEADVILLE      CLOUDY    15   9  76 N8        29.72S WCI   4
SALIDA         PTCLDY    31  14  49 W13G23    29.84R WCI  21
SUNLIGHT       CLOUDY    18  16  93 CALM        N/A
WILKERSON PASS CLEAR     12   7  79 W6        29.73R WCI   3
$$

COZ069>075-031500-
...SAN LUIS VALLEY/SANGRE DE CRISTO MOUNTAINS...

CITY           SKY/WX    TMP DP  RH WIND       PRES   REMARKS
ALAMOSA        CLEAR     24  17  74 S15       29.81F WCI  11
LA VETA PASS   PTCLDY    18  12  79 S9G21     29.78S WCI   6
SAGUACHE       PTCLDY    25  14  63 NW5       29.81R WCI  19
$$

COZ035-036-038>040-031500-
...NORTHERN COLORADO FRONT RANGE...

CITY           SKY/WX    TMP DP  RH WIND       PRES   REMARKS
DENVER INTL AP MOCLDY    24  22  91 NE20      29.77R WCI  10
DMNS CITY PARK   N/A     25  20  82 N5G20     29.82R WCI  20
AURORA         MOCLDY    23  21  93 NE20      29.79R WCI   9
FRONT RANGE AP NOT AVBL
ERIE MUNI ARPT PTCLDY    26  20  80 N10       29.81R WCI  16
BOULDER MUN AP CLOUDY    27  21  80 CALM      29.82R
CENTENNIAL     MOCLDY    24  21  88 NE16      29.77R WCI  11
BROOMFIELD     MOCLDY    39  21  48 N14       29.79R
FORT COLLINS   PTCLDY    25  16  68 N16G22    29.82R WCI  12
LONGMONT       PTCLDY    28  20  71 NE8       29.83R WCI  20
$$

COZ041-046-047-076>085-087-088-031500-
...PIKES PEAK/PALMER DIVIDE AND SOUTHERN FOOTHILLS...

CITY           SKY/WX    TMP DP  RH WIND       PRES   REMARKS
COLO. SPRINGS  PTCLDY    32  12  43 W9        29.73R WCI  24
A. F. ACADEMY  CLEAR     30   9  41 W13       29.72R WCI  20
ELLICOTT       NOT AVBL
FALCON         CLEAR     30  11  45 W14       29.73S WCI  19
FORT CARSON    PTCLDY    34  15  45 SW17      29.72S WCI  23
LIMON          SNOW      24  23  96 N20       29.75R VSB 1/2 WCI  10
MONUMENT HILL  PTCLDY    21  12  68 SW9       29.71S WCI  11
TRINIDAD       MOCLDY    39  17  41 W18       29.77S
$$

COZ042>045-048>051-090-091-031500-
...NORTHEAST COLORADO...

CITY           SKY/WX    TMP DP  RH WIND       PRES   REMARKS
GREELEY ARPT   CLEAR     25  16  68 N18       29.81R WCI  11
AKRON          CLOUDY    24  23  96 N28G37    29.76R WCI   7
BURLINGTON     FOG       29  27  92 N23G31    29.73R VSB 1/4 WCI  15
WRAY           CLOUDY    32  29  87 N20G26    29.78R WCI  20
STERLING       PTCLDY    27  21  80 N18G29    29.81R WCI  13
HOLYOKE        NOT AVBL
FORT MORGAN    PTCLDY    24  20  86 NE18G33   29.81R WCI  10
$$

COZ086-089-092>099-031500-
...SOUTHEAST COLORADO...

CITY           SKY/WX    TMP DP  RH WIND       PRES   REMARKS
PUEBLO         PTCLDY    39  18  42 W8        29.74R
LA JUNTA       CLOUDY    41  25  53 W17       29.75R
LAMAR          MOCLDY    41  27  57 W17       29.71R
SPRINGFIELD      N/A     36  27  69 W9        29.76R
$$



USA.gov is the U.S. government's official web portal to all federal, state and local government web resources and services.